Location: Sternwarte Stuttgart
(48.7824°N, 9.1965°E)
Time: 12:55:17
(UTC+00:00)

ISS - Pass Details

Date: 28 April 2025
Orbit: 416 x 420 km, 51.6° (Epoch: 15 May)

Event Time Altitude Azimuth Distance (km) Brightness Sun altitude
Exits shadow 00:59:49 18° 95° (E) 1,113 -1.4 -23.3°
Drops below altitude 10° 01:00:58 10° 83° (E) 1,495 -0.6 -23.2°
Sets 01:03:13 0° 71° (ENE) 2,362 0.7 -23.1°
